West Palm Beach, FL

9:43 AM EDT on September 15, 2019 (GMT -0400)
Palm Beach International

Weather History for KPBI - May, 2019

Change the Weather History Date:

Wednesday, May 22, 2019

  Actual Average Record
Temperature  
Mean Temperature 80 °F 79 °F  
Max Temperature 87 °F 87 °F 95 °F (1961)
Min Temperature 73 °F 72 °F 56 °F (1919)
Degree Days  
Heating Degree Days 0 0  
Month to date heating degree days 0 0  
Since 1 July heating degree days 144 233  
Cooling Degree Days 15 14  
Month to date cooling degree days 318 278  
Year to date cooling degree days 1243 973  
Growing Degree Days 30 (Base 50)    
Moisture  
Dew Point 67 °F    
Average Humidity 64    
Maximum Humidity 79    
Minimum Humidity 48    
Precipitation  
Precipitation 0.00 in 0.18 in 5.49 in (2003)
Month to date precipitation 5.29 2.62  
Year to date precipitation 21.01 16.82  
Snow  
Snow 0.00 in - - ()
Month to date snowfall 0.0  
Since 1 July snowfall 0.0  
Snow Depth 0.00 in    
Sea Level Pressure  
Sea Level Pressure 30.06 in    
Wind  
Wind Speed 10 mph (ENE)    
Max Wind Speed 18 mph    
Max Gust Speed 24 mph    
Visibility 10 miles    
Events      
T = Trace of Precipitation, MM = Missing Value Source: NWS Daily Summary

Daily Weather History Graph

Daily Weather History Graph

Search for Another Location

Airport or City:

Astronomy

May. 22, 2019 Rise Set
Actual Time 6:29 AM EDT 8:04 PM EDT
Civil Twilight 6:04 AM EDT 8:29 PM EDT
Nautical Twilight 5:33 AM EDT 9:00 PM EDT
Astronomical Twilight 5:02 AM EDT 9:32 PM EDT
Moon 11:44 PM EDT (5/22) 9:40 AM EDT (5/22)
Length of Visible Light 14h 25m
Length of Day
13h 34m
Waning Gibbous, 85% of the Moon is Illuminated
May 22
Waning Gibbous
May 26
Last Quarter
Jun 3
New
Jun 10
First Quarter
Jun 17
Full

Hourly Weather History & Observations

Time (EDT) Temp. Heat Index Dew Point Humidity Pressure Visibility Wind Dir Wind Speed Gust Speed Precip Events Conditions
12:53 AM 80.1 °F 81.9 °F 64.9 °F 60% 30.03 in 10.0 mi ESE 11.5 mph - N/A   Partly Cloudy
1:53 AM 79.0 °F - 64.9 °F 62% 30.02 in 10.0 mi ESE 8.1 mph - N/A   Partly Cloudy
2:53 AM 79.0 °F - 66.9 °F 66% 30.01 in 10.0 mi ESE 9.2 mph - N/A   Partly Cloudy
3:53 AM 77.0 °F - 68.0 °F 74% 29.99 in 10.0 mi ESE 6.9 mph - N/A   Partly Cloudy
4:53 AM 77.0 °F - 66.9 °F 71% 30.00 in 10.0 mi ESE 4.6 mph - N/A   Partly Cloudy
5:53 AM 77.0 °F - 66.0 °F 69% 30.00 in 10.0 mi Calm Calm - N/A   Scattered Clouds
6:53 AM 73.0 °F - 66.9 °F 81% 30.03 in 10.0 mi Calm Calm - N/A   Scattered Clouds
7:53 AM 79.0 °F - 69.1 °F 72% 30.05 in 10.0 mi Calm Calm - N/A   Scattered Clouds
8:53 AM 82.0 °F 83.4 °F 64.0 °F 54% 30.06 in 10.0 mi East 9.2 mph - N/A   Scattered Clouds
9:53 AM 82.9 °F 84.4 °F 64.0 °F 53% 30.07 in 10.0 mi NE 9.2 mph - N/A   Scattered Clouds
10:53 AM 84.9 °F 85.9 °F 63.0 °F 48% 30.08 in 10.0 mi NE 8.1 mph - N/A   Scattered Clouds
11:53 AM 84.9 °F 86.6 °F 64.9 °F 51% 30.08 in 10.0 mi ENE 12.7 mph - N/A   Partly Cloudy
12:53 PM 86.0 °F 88.2 °F 66.0 °F 51% 30.08 in 10.0 mi ENE 12.7 mph - N/A   Scattered Clouds
1:53 PM 86.0 °F 88.8 °F 66.9 °F 53% 30.08 in 10.0 mi East 12.7 mph - N/A   Scattered Clouds
2:53 PM 86.0 °F 88.8 °F 66.9 °F 53% 30.08 in 10.0 mi ENE 10.4 mph 19.6 mph N/A   Scattered Clouds
3:53 PM 84.0 °F 86.3 °F 66.0 °F 55% 30.07 in 10.0 mi East 12.7 mph - N/A   Mostly Cloudy
4:53 PM 84.9 °F 87.6 °F 66.9 °F 55% 30.07 in 10.0 mi ENE 12.7 mph - N/A   Scattered Clouds
5:53 PM 82.9 °F 85.4 °F 66.9 °F 58% 30.07 in 10.0 mi ENE 13.8 mph - N/A   Scattered Clouds
6:53 PM 82.9 °F 85.4 °F 66.9 °F 58% 30.08 in 10.0 mi ENE 17.3 mph - N/A   Scattered Clouds
7:53 PM 81.0 °F 83.8 °F 68.0 °F 65% 30.09 in 10.0 mi ENE 13.8 mph - N/A   Mostly Cloudy
8:53 PM 81.0 °F 83.3 °F 66.9 °F 62% 30.10 in 10.0 mi ENE 13.8 mph - N/A   Mostly Cloudy
9:53 PM 81.0 °F 83.8 °F 68.0 °F 65% 30.12 in 10.0 mi ENE 13.8 mph - N/A   Mostly Cloudy
10:53 PM 81.0 °F 84.1 °F 69.1 °F 67% 30.14 in 10.0 mi ENE 16.1 mph - N/A   Mostly Cloudy
11:53 PM 80.1 °F 82.7 °F 68.0 °F 67% 30.14 in 10.0 mi ENE 15.0 mph 23.0 mph N/A   Scattered Clouds